029  
SXUS52 KCHS 240112  
OSOCHS  
 
MARINE OBSERVATIONS  
NATIONAL WEATHER SERVICE CHARLESTON SC  
800 PM EST SAT FEB 23 2019  
   
..DOWNTOWN CHARLESTON AND HARBOR
 
 
 
CITY SKY/WX TMP DP RH WIND PRES REMARKS  
WATERFRONT PRK N/A 56 54 93 N9 29.98R  
   
..LAKE MOULTRIE
 
 
 
CITY SKY/WX TMP DP RH WIND PRES REMARKS  
PINOPOLIS N/A 50 50 100 NE5 30.06F  
   
..LAKE AND SUPPLEMENTAL COASTAL OBSERVATIONS
 
 
 
STATION/POSITION TIME TEMP WIND PRES WAVE SWELL  
AIR SEA DIR/SP/G HT/PER HT/PER/DIR  
(UTC) (F) (DEG/KT/KT) (MB) (FT/S) (FT/S/D)  
FORT PULASKI 0042 59 59 60/ 4/ 4 1019.5R  
SAPELO ISLAND 0000 61 40/ 4 1019.0  
WINYAH BAY 2345 54 360/ 3 1019.0  
LAKE MURRAY 0020 44 10/ 1/ 3 1020.3  
ACE BASIN NERRS 2345 63 CALM 1020.0  
 
   
..C-MAN AND BUOY OBSERVATIONS
 
 
 
STATION/POSITION TIME TEMP WIND PRES WAVE SWELL  
AIR SEA DIR/SP/G HT/PER HT/PER/DIR  
(UTC) (F) (DEG/KT/KT) (MB) (FT/S) (FT/S/D)  
BUOY 41004 0050 67 60/ 6/ 8 1019.6R 4/ 8 3/ 90/ 8  
BUOY 41008 0050 60 59 360/ 8/ 10 1018.6F 4/ 7 3/ 80/ 7  
FOLLY BEACH CMAN 0000 55 50/ 9/ 11 1020.2S  
PRITCHARDS ISLAN NOT AVBL  
CAPERS NS BUOY 0008 54 56 70/ 10/ 12 1019.8R  
FRIPP NS BUOY 0008 56 50/ 12/ 17 1018.9F  
5E ST. MARYS GA 0100 63 N/A 3/ 6  
 
 
STATION/POSITION TIME TEMP WIND PRES WAVE SWELL  
AIR SEA DIR/SP/G HT/PER HT/PER/DIR  
(UTC) (F) (DEG/KT/KT) (MB) (FT/S) (FT/S/D)  
FRYING PAN BUOY 0050 58 66 350/ 8/ 10 1019.5F 4/ 7 3/ 70/ 7  
BUOY 41025 NOT AVBL  
CAPE LOOKOUT NC 0000 160/ 11/ 12 1018.9F  
BUOY 41002 NOT AVBL  
BUOY 41010 0050 75 76 140/ 10/ 14 1021.1R 4/ 8 3/120/ 8  
ST AUGUSTINE FL 0100 65 62 170/ 11/ 11 1018.3F  
 

 
 
 
CLICK HERE TO GO TO PREVIOUS BULLETINS.

The Nexlab SC Page
The Nexlab GA Page Main Text Page